[[{"header":{"parameterUnit":"m.s-1","parameterCategory":2,"la1":30.2991,"la2":30.254,"lo1":-89.0895,"lo2":-89.0444,"dy":0.0017,"dx":0.0017,"nx":28,"ny":28,"refTime":"2025-11-16T03:00:00:Z","depth":"0","parameterNumber":2,"parameterNumberName":"U-component_of_CURRENTS"},"data":[0,0,0,0,0,0,0,0,0,0,0,0,0,0,0,0,0,0,0,0,0,0,0,0,0,0,0,0,0,0,0,0,0,0,0,0,0,0,0,0,0,0,0,0,0,0,0,0,0,0,0,0,0,0,0,0,0,0,-0.2704,-0.2703,0,-0.2573,-0.2572,-0.257,-0.2486,-0.2486,-0.2485,-0.2485,-0.227,-0.2265,-0.226,0,0,0,0,0,0,0,0,0,0,0,0,0,-0.2806,-0.2805,-0.2704,-0.2703,-0.2701,-0.2574,-0.2572,-0.257,-0.2486,-0.2486,-0.2485,-0.2485,-0.2272,-0.2266,-0.2259,0,0,0,0,0,0,0,0,0,0,0,0,0,-0.2726,-0.2804,-0.2704,-0.2645,-0.2638,-0.2574,-0.2572,-0.2569,-0.2486,-0.2486,-0.2485,-0.2485,-0.2274,-0.2267,-0.2259,-0.2222,0,0,-0.2234,-0.2231,0,0,0,0,0,0,0,0,-0.2731,-0.2723,-0.2655,-0.2649,-0.2641,-0.2547,-0.2529,-0.2449,-0.2487,-0.2543,-0.2485,-0.2484,-0.2356,-0.2341,-0.2318,-0.2211,-0.2202,-0.2233,-0.2229,-0.2225,-0.2223,0,0,0,0,0,0,0,-0.2737,-0.2727,-0.2651,-0.2654,-0.2645,-0.2599,-0.2588,-0.2513,-0.2452,-0.2538,-0.2532,-0.2519,-0.2352,-0.2326,-0.2312,-0.2199,-0.2234,-0.2227,-0.2222,-0.2219,-0.2051,-0.2052,0,0,0,0,0,0,-0.276,-0.2733,-0.2655,-0.2647,-0.2687,-0.2598,-0.2585,-0.2577,-0.2454,-0.2436,-0.252,-0.2516,-0.234,-0.2321,-0.2304,-0.2213,-0.2225,-0.2218,-0.2213,-0.2051,-0.2052,-0.2052,0,0,0,0,0,0,-0.2762,-0.2754,-0.2661,-0.2688,-0.2673,-0.2598,-0.2588,-0.2574,-0.255,-0.2442,-0.2422,-0.2511,-0.2339,-0.2315,-0.2246,-0.2205,-0.2214,-0.2207,-0.2051,-0.2051,-0.2052,-0.2055,0,0,0,0,0,0,-0.2766,-0.2756,-0.2764,-0.269,-0.2672,-0.2632,-0.2588,-0.2572,-0.2544,-0.2538,-0.2427,-0.2407,-0.2336,-0.2259,-0.2238,-0.2194,-0.2201,-0.205,-0.2051,-0.2052,-0.2055,-0.2056,-0.2057,0,0,0,0,0,-0.277,-0.2783,-0.2766,-0.2756,-0.2684,-0.2633,-0.262,-0.2563,-0.2545,-0.2539,-0.2467,-0.241,-0.2248,-0.2252,-0.2228,-0.2181,-0.205,-0.2051,-0.2052,-0.2054,-0.2055,-0.2057,0,0,0,0,0,0,-0.2827,-0.2773,-0.2753,-0.2748,-0.27,-0.2619,-0.261,-0.2574,-0.2513,-0.2509,-0.2409,-0.2383,-0.2313,-0.2262,-0.2269,-0.2143,-0.2142,-0.2138,-0.2152,-0.2152,-0.2154,-0.2143,-0.2194,0,0,0,0,0,-0.2847,-0.2843,-0.278,-0.2776,-0.2758,-0.2688,-0.2664,-0.2627,-0.2562,-0.2536,-0.2456,-0.2377,-0.2298,-0.224,-0.2181,-0.2099,-0.2046,-0.2061,-0.2062,-0.2062,-0.2043,-0.1937,-0.1925,-0.2055,-0.2055,-0.2055,0,0,-0.2865,-0.2838,-0.2833,-0.2788,-0.2747,-0.2705,-0.2672,-0.2643,-0.2592,-0.252,-0.2439,-0.2387,-0.2288,-0.2204,-0.2165,-0.2147,-0.2006,-0.2063,-0.2064,-0.2043,-0.1937,-0.1923,-0.1912,-0.2055,-0.2055,-0.2055,0,0,-0.2889,-0.2879,-0.2875,-0.2839,-0.2791,-0.274,-0.2737,-0.2664,-0.2619,-0.255,-0.2483,-0.2411,-0.2296,-0.2201,-0.214,-0.2114,-0.2034,-0.2102,-0.206,-0.1959,-0.1946,-0.1934,-0.1875,-0.1858,-0.2077,-0.2077,-0.2077,0,-0.2922,-0.2876,-0.2866,-0.2844,-0.2786,-0.2756,-0.2702,-0.2667,-0.2578,-0.2513,-0.2533,-0.2342,-0.2284,-0.2123,-0.2124,-0.2107,-0.2054,-0.2056,-0.1956,-0.1943,-0.193,-0.1872,-0.1853,-0.2078,-0.2078,-0.2078,-0.2078,0,-0.2919,-0.2878,-0.2872,-0.2817,-0.2776,-0.2728,-0.2666,-0.2628,-0.2579,-0.2511,-0.2387,-0.2317,-0.2186,-0.2168,-0.2133,-0.2,-0.1997,-0.1986,-0.1944,-0.1916,-0.1859,-0.1839,-0.2078,-0.2078,-0.2078,-0.2078,0,0,-0.2966,-0.2882,-0.2868,-0.2799,-0.2736,-0.2683,-0.2626,-0.2508,-0.2426,-0.2383,-0.2243,-0.2156,-0.2124,-0.2056,-0.2002,-0.1919,-0.1819,-0.1916,-0.1911,-0.1844,-0.1612,-0.1611,-0.1589,-0.1779,-0.1775,-0.1772,-0.1616,0,-0.2937,-0.2852,-0.2819,-0.2703,-0.2626,-0.2575,-0.2498,-0.2413,-0.2342,-0.2228,-0.2151,-0.2033,-0.2075,-0.2005,-0.1936,-0.1844,-0.1761,-0.1864,-0.166,-0.1655,-0.1643,-0.1563,-0.155,-0.1408,-0.1596,-0.1592,-0.159,0,-0.2902,-0.2833,-0.2714,-0.256,-0.2525,-0.2474,-0.2303,-0.2239,-0.2115,-0.206,-0.1963,-0.1912,-0.1791,-0.1844,-0.1672,-0.1733,-0.1675,-0.1622,-0.1614,-0.1589,-0.1613,-0.1462,-0.1364,-0.1345,-0.1558,-0.1561,-0.1563,0,-0.2845,-0.2731,-0.2609,-0.2565,-0.2433,-0.2365,-0.2294,-0.2175,-0.2057,-0.1953,-0.1868,-0.1754,-0.1677,-0.159,-0.1551,-0.158,-0.1377,-0.1393,-0.1331,-0.1333,-0.1268,-0.127,-0.1108,-0.1248,-0.1248,-0.1249,-0.1249,0,-0.2763,-0.2656,-0.2578,-0.2507,-0.2313,-0.2303,-0.2105,-0.2038,-0.1925,-0.1745,-0.1779,-0.1654,-0.161,-0.1512,-0.1479,-0.1357,-0.1318,-0.1295,-0.1268,-0.1277,-0.1281,-0.1221,-0.125,-0.1243,-0.1244,-0.1245,-0.1246,0,-0.2633,-0.2624,-0.2455,-0.2332,-0.2267,-0.2133,-0.1939,-0.1792,-0.1791,-0.1568,-0.1529,-0.1523,-0.1447,-0.1411,-0.1274,-0.125,-0.1118,-0.1107,-0.1156,-0.1137,-0.106,-0.1093,-0.0918,-0.0887,-0.0974,-0.0973,-0.0971,0,-0.2517,-0.243,-0.2265,-0.2139,-0.2059,-0.1879,-0.1703,-0.1666,-0.1508,-0.1467,-0.132,-0.1309,-0.126,-0.1159,-0.1113,-0.1032,-0.105,-0.0946,-0.099,-0.1018,-0.1033,-0.1078,-0.1069,-0.0917,-0.0916,-0.0914,-0.0914,0,-0.2216,-0.2197,-0.2055,-0.1823,-0.165,-0.1434,-0.1237,-0.1124,-0.1078,-0.0995,-0.0953,-0.0998,-0.1034,-0.1028,-0.1005,-0.0947,-0.094,-0.0917,-0.0895,-0.0921,-0.1002,-0.0975,-0.1103,-0.0903,-0.0904,-0.0905,-0.0905,-0.0906,-0.1925,-0.1783,-0.1634,-0.1396,-0.1231,-0.1022,-0.0864,-0.0726,-0.0561,-0.0482,-0.0601,-0.0649,-0.0899,-0.0922,-0.0865,-0.0798,-0.0843,-0.0765,-0.0787,-0.0817,-0.0823,-0.0957,-0.0767,-0.0767,-0.0767,-0.0768,-0.0768,0,-0.1474,-0.1389,-0.1178,-0.0963,-0.0765,-0.0763,-0.0533,-0.044,-0.0288,-0.021,-0.0231,-0.0399,-0.0552,-0.0708,-0.0758,-0.0691,-0.0678,-0.0662,-0.0707,-0.0689,-0.0736,-0.0771,-0.0635,-0.0635,-0.0635,-0.0635,-0.0635,-0.0635,-0.1218,-0.0948,-0.0899,-0.0539,-0.0445,-0.0235,-0.0145,-0.0079,-0.0017,0.0058,0.0054,-0.0047,-0.0386,-0.066,-0.0691,-0.0647,-0.0622,-0.0622,-0.0607,-0.0652,-0.0664,-0.0675,-0.0712,-0.0565,-0.0565,-0.0548,-0.0548,-0.0548]},{"header":{"parameterUnit":"m.s-1","parameterCategory":2,"la1":30.2991,"la2":30.254,"lo1":-89.0895,"lo2":-89.0444,"dy":0.0017,"dx":0.0017,"nx":28,"ny":28,"refTime":"2025-11-16T03:00:00:Z","depth":"0","parameterNumber":3,"parameterNumberName":"V-component_of_CURRENTS"},"data":[0,0,0,0,0,0,0,0,0,0,0,0,0,0,0,0,0,0,0,0,0,0,0,0,0,0,0,0,0,0,0,0,0,0,0,0,0,0,0,0,0,0,0,0,0,0,0,0,0,0,0,0,0,0,0,0,0,0,0.0843,0.0843,0,0.0906,0.0907,0.0908,0.0978,0.0979,0.098,0.098,0.1061,0.1063,0.1064,0,0,0,0,0,0,0,0,0,0,0,0,0,0.082,0.082,0.0843,0.0843,0.0844,0.0906,0.0907,0.0908,0.0978,0.0979,0.098,0.0981,0.1061,0.1062,0.1064,0,0,0,0,0,0,0,0,0,0,0,0,0,0.0853,0.082,0.0843,0.0884,0.0888,0.0906,0.0907,0.0908,0.0978,0.0979,0.098,0.0981,0.106,0.1062,0.1064,0.1053,0,0,0.1071,0.1072,0,0,0,0,0,0,0,0,0.0851,0.0854,0.0878,0.0881,0.0886,0.0933,0.0928,0.0957,0.0977,0.0946,0.098,0.0982,0.1017,0.1023,0.1036,0.1057,0.1061,0.1071,0.1072,0.1073,0.1074,0,0,0,0,0,0,0,0.0849,0.0852,0.087,0.0878,0.0883,0.0912,0.0918,0.0934,0.0977,0.0949,0.0954,0.0956,0.102,0.1033,0.1038,0.1062,0.1071,0.1073,0.1074,0.1075,0.1077,0.1076,0,0,0,0,0,0,0.0832,0.0849,0.0868,0.0872,0.0868,0.0911,0.0918,0.0919,0.0976,0.0985,0.0955,0.0959,0.1029,0.1036,0.1041,0.1008,0.1073,0.1075,0.1076,0.1078,0.1076,0.1075,0,0,0,0,0,0,0.0832,0.0833,0.0866,0.0861,0.0866,0.091,0.091,0.0919,0.0929,0.098,0.0991,0.0955,0.103,0.1038,0.105,0.1013,0.1076,0.1078,0.1079,0.1078,0.1076,0.0957,0,0,0,0,0,0,0.0831,0.0833,0.0822,0.0859,0.0866,0.0856,0.0909,0.092,0.0928,0.0934,0.0983,0.0992,0.1032,0.1046,0.1052,0.1017,0.108,0.1081,0.1079,0.1076,0.0962,0.0951,0.0941,0,0,0,0,0,0.083,0.08,0.0821,0.0823,0.0851,0.0854,0.086,0.0898,0.0926,0.0914,0.0957,0.099,0.1036,0.1047,0.1054,0.1018,0.1082,0.1079,0.1077,0.0967,0.0953,0.0942,0,0,0,0,0,0,0.077,0.0805,0.0829,0.0809,0.0824,0.0865,0.0853,0.0885,0.091,0.0918,0.0976,0.0987,0.0987,0.1017,0.1028,0.1014,0.1063,0.1062,0.0977,0.0965,0.0955,0.0965,0.1081,0,0,0,0,0,0.0754,0.0746,0.0783,0.076,0.0768,0.081,0.0815,0.0843,0.0872,0.0885,0.0921,0.0957,0.098,0.0985,0.1014,0.0997,0.1075,0.098,0.097,0.0961,0.0974,0.1066,0.1065,0.1066,0.1066,0.1066,0,0,0.0715,0.0738,0.0728,0.0748,0.0765,0.0754,0.0816,0.0813,0.0805,0.0887,0.0882,0.0925,0.0971,0.0963,0.0963,0.0981,0.0996,0.0957,0.0949,0.0968,0.1063,0.1063,0.1064,0.1064,0.1065,0.1065,0,0,0.0632,0.0662,0.0629,0.0646,0.067,0.0699,0.0693,0.0731,0.0749,0.0753,0.0812,0.0839,0.0862,0.0893,0.0911,0.086,0.0947,0.0855,0.08,0.0886,0.0888,0.089,0.0971,0.0982,0.0839,0.0839,0.0839,0,0.0585,0.0566,0.0613,0.0596,0.0605,0.0667,0.064,0.0657,0.0693,0.0713,0.0734,0.0807,0.0834,0.0848,0.0824,0.0836,0.0905,0.0838,0.0874,0.0878,0.0883,0.0966,0.0979,0.0833,0.0834,0.0834,0.0835,0,0.0483,0.048,0.046,0.0468,0.0478,0.0465,0.0508,0.0516,0.0555,0.0596,0.0631,0.0686,0.0743,0.0732,0.0757,0.0784,0.0829,0.0859,0.0907,0.0876,0.0965,0.0981,0.0824,0.0826,0.0828,0.083,0,0,0.0343,0.0384,0.0376,0.0405,0.0423,0.0441,0.041,0.0437,0.0467,0.0494,0.0538,0.0556,0.0627,0.0653,0.0694,0.0744,0.081,0.0798,0.0805,0.088,0.1008,0.093,0.0942,0.0851,0.0853,0.0855,0.1052,0,0.0251,0.0234,0.0259,0.0249,0.026,0.0316,0.0311,0.0349,0.0393,0.045,0.0512,0.0578,0.0583,0.0633,0.0672,0.0805,0.085,0.0755,0.1027,0.1035,0.0972,0.0956,0.0901,0.1063,0.1068,0.1071,0.1073,0,0.0134,0.0164,0.0147,0.0229,0.0236,0.0238,0.0302,0.031,0.038,0.0423,0.0479,0.0555,0.0632,0.0652,0.0836,0.078,0.0876,0.0961,0.0972,0.0959,0.0987,0.1099,0.1093,0.1124,0.1099,0.1097,0.1095,0,0.0072,0.0087,0.0099,0.0117,0.0195,0.021,0.0252,0.031,0.0392,0.0434,0.0519,0.0584,0.0695,0.0798,0.0938,0.0913,0.1156,0.1157,0.1172,0.1169,0.1206,0.12,0.1267,0.1281,0.128,0.128,0.1279,0,-0.0006,0.0011,0.0093,0.0118,0.0187,0.0218,0.0307,0.0334,0.0438,0.057,0.0542,0.0665,0.0745,0.0882,0.0969,0.1119,0.1192,0.117,0.1213,0.1157,0.1144,0.1241,0.1268,0.1287,0.1286,0.1284,0.1283,0,-0.0037,-0.002,0.0049,0.0139,0.0177,0.0248,0.0417,0.0493,0.0545,0.0714,0.0749,0.0807,0.0925,0.0992,0.1178,0.1194,0.1344,0.1353,0.126,0.1284,0.126,0.1281,0.1443,0.1496,0.1399,0.1398,0.1397,0,-0.003,-0.0012,0.0115,0.0189,0.0248,0.0367,0.046,0.0551,0.0656,0.0831,0.0925,0.1024,0.1086,0.1246,0.1247,0.1331,0.1385,0.1346,0.1254,0.1246,0.1306,0.133,0.1367,0.1277,0.1275,0.1274,0.1273,0,0.0035,0.0068,0.0147,0.0295,0.0404,0.0542,0.0677,0.0782,0.0905,0.1013,0.1186,0.1236,0.1277,0.1255,0.1239,0.1296,0.1339,0.1317,0.1368,0.1247,0.1232,0.1306,0.1159,0.1261,0.1262,0.1263,0.1264,0.1264,0.0132,0.0204,0.0306,0.0452,0.0564,0.0701,0.0815,0.0925,0.1084,0.1228,0.1352,0.1395,0.1314,0.1224,0.1272,0.1225,0.1281,0.1231,0.1276,0.1314,0.1293,0.1083,0.1175,0.1176,0.1176,0.1177,0.1177,0,0.029,0.0348,0.0471,0.0639,0.0772,0.0797,0.096,0.1048,0.1183,0.1261,0.1401,0.1431,0.1308,0.1237,0.1129,0.1174,0.1235,0.123,0.128,0.1335,0.1208,0.1122,0.1134,0.1134,0.1134,0.1134,0.1134,0.1134,0.039,0.0517,0.0562,0.0806,0.0905,0.1055,0.1131,0.1207,0.1262,0.1339,0.1361,0.1426,0.1334,0.1236,0.1191,0.1214,0.1341,0.131,0.1428,0.133,0.1334,0.1338,0.1261,0.1303,0.1303,0.1535,0.1537,0.1538]}],[{"header":{"parameterUnit":"m.s-1","parameterCategory":2,"la1":30.2991,"la2":30.254,"lo1":-89.0895,"lo2":-89.0444,"dy":0.0017,"dx":0.0017,"nx":28,"ny":28,"refTime":"2025-11-16T03:00:00:Z","depth":"2","parameterNumber":2,"parameterNumberName":"U-component_of_CURRENTS"},"data":[0,0,0,0,0,0,0,0,0,0,0,0,0,0,0,0,0,0,0,0,0,0,0,0,0,0,0,0,0,0,0,0,0,0,0,0,0,0,0,0,0,0,0,0,0,0,0,0,0,0,0,0,0,0,0,0,0,0,-0.2029,-0.2031,0,-0.2263,-0.2266,-0.2269,-0.2461,-0.2462,-0.2464,-0.2465,-0.2565,-0.2566,-0.2567,0,0,0,0,0,0,0,0,0,0,0,0,0,-0.1874,-0.1876,-0.2029,-0.2031,-0.2034,-0.2263,-0.2267,-0.227,-0.246,-0.2462,-0.2464,-0.2466,-0.2564,-0.2566,-0.2567,0,0,0,0,0,0,0,0,0,0,0,0,0,-0.2012,-0.1876,-0.2028,-0.2153,-0.2166,-0.2262,-0.2267,-0.2271,-0.246,-0.2462,-0.2465,-0.2467,-0.2564,-0.2565,-0.2567,-0.2531,0,0,-0.2573,-0.2573,0,0,0,0,0,0,0,0,-0.2004,-0.2018,-0.2132,-0.2145,-0.2159,-0.2331,-0.2249,-0.235,-0.2459,-0.2353,-0.2465,-0.2468,-0.2469,-0.2479,-0.2526,-0.2536,-0.254,-0.2573,-0.2574,-0.2575,-0.2575,0,0,0,0,0,0,0,-0.1994,-0.201,-0.2126,-0.2135,-0.2151,-0.2241,-0.2262,-0.227,-0.2396,-0.2363,-0.2376,-0.2394,-0.2477,-0.2524,-0.2529,-0.2541,-0.2573,-0.2574,-0.2575,-0.2576,-0.2629,-0.263,0,0,0,0,0,0,-0.1947,-0.2,-0.2119,-0.2133,-0.2081,-0.2241,-0.2265,-0.2277,-0.2399,-0.242,-0.2392,-0.2402,-0.252,-0.2527,-0.2533,-0.2581,-0.2575,-0.2576,-0.2577,-0.2629,-0.2629,-0.263,0,0,0,0,0,0,-0.1942,-0.1955,-0.2109,-0.2069,-0.2094,-0.224,-0.2253,-0.2281,-0.2392,-0.2422,-0.2442,-0.248,-0.2522,-0.2531,-0.2614,-0.2583,-0.2577,-0.2579,-0.2628,-0.2629,-0.2629,-0.2621,0,0,0,0,0,0,-0.1937,-0.1951,-0.1973,-0.2065,-0.2095,-0.2255,-0.2251,-0.2283,-0.2393,-0.2411,-0.2502,-0.2512,-0.2525,-0.2611,-0.2615,-0.2585,-0.258,-0.2628,-0.2629,-0.2629,-0.2621,-0.2621,-0.2621,0,0,0,0,0,-0.193,-0.1962,-0.1972,-0.1989,-0.2109,-0.2259,-0.2288,-0.2399,-0.2395,-0.2496,-0.2529,-0.2512,-0.2616,-0.2615,-0.2619,-0.2588,-0.2628,-0.2628,-0.2629,-0.2621,-0.2621,-0.2621,0,0,0,0,0,0,-0.1934,-0.1986,-0.2,-0.2053,-0.2178,-0.2292,-0.2356,-0.2422,-0.2529,-0.2512,-0.2545,-0.256,-0.2605,-0.2612,-0.261,-0.2605,-0.2605,-0.2607,-0.2597,-0.2598,-0.2598,-0.2536,-0.2582,0,0,0,0,0,-0.1926,-0.1951,-0.205,-0.2102,-0.214,-0.2246,-0.2319,-0.2393,-0.2478,-0.2532,-0.2588,-0.2602,-0.2598,-0.2621,-0.264,-0.2656,-0.261,-0.2631,-0.2631,-0.2631,-0.2584,-0.25,-0.2487,-0.2632,-0.2632,-0.2632,0,0,-0.1961,-0.197,-0.2005,-0.2103,-0.2169,-0.2243,-0.2301,-0.2413,-0.2486,-0.251,-0.2616,-0.2618,-0.2608,-0.2629,-0.2644,-0.2641,-0.2578,-0.2632,-0.2632,-0.2584,-0.2499,-0.2485,-0.2471,-0.2633,-0.2633,-0.2633,0,0,-0.1996,-0.2021,-0.2048,-0.2117,-0.2206,-0.2276,-0.2317,-0.245,-0.2532,-0.2635,-0.2618,-0.2612,-0.2689,-0.264,-0.262,-0.2629,-0.2585,-0.2642,-0.2588,-0.2509,-0.2495,-0.2481,-0.2449,-0.2432,-0.2638,-0.2638,-0.2638,0,-0.2006,-0.2052,-0.2104,-0.212,-0.217,-0.2283,-0.2345,-0.2437,-0.2597,-0.2623,-0.2678,-0.2658,-0.2666,-0.2582,-0.2586,-0.2618,-0.2592,-0.2588,-0.2504,-0.249,-0.2476,-0.2445,-0.2427,-0.2638,-0.2638,-0.2638,-0.2638,0,-0.2055,-0.2094,-0.2111,-0.2145,-0.2227,-0.2307,-0.2403,-0.2507,-0.2584,-0.2638,-0.2648,-0.2646,-0.261,-0.2609,-0.2603,-0.2487,-0.251,-0.2516,-0.2494,-0.246,-0.2432,-0.2413,-0.2637,-0.2637,-0.2637,-0.2638,0,0,-0.203,-0.2127,-0.2122,-0.2168,-0.2237,-0.2326,-0.2396,-0.2509,-0.2524,-0.2629,-0.2618,-0.2586,-0.2542,-0.251,-0.2472,-0.2402,-0.2305,-0.2418,-0.2414,-0.2367,-0.2163,-0.208,-0.2052,-0.2303,-0.2299,-0.2295,-0.2197,0,-0.2046,-0.2095,-0.2138,-0.2238,-0.229,-0.237,-0.2435,-0.2521,-0.2577,-0.2602,-0.2546,-0.251,-0.2516,-0.2457,-0.2386,-0.2325,-0.2248,-0.2332,-0.2215,-0.2211,-0.2124,-0.2022,-0.1912,-0.1804,-0.2179,-0.2176,-0.2173,0,-0.2044,-0.2088,-0.2165,-0.2287,-0.2312,-0.2387,-0.2465,-0.2528,-0.2531,-0.2547,-0.2458,-0.2423,-0.2297,-0.2313,-0.2161,-0.2224,-0.2168,-0.2133,-0.2129,-0.202,-0.2088,-0.189,-0.1755,-0.2141,-0.2144,-0.2146,-0.2148,0,-0.1984,-0.2105,-0.2178,-0.2209,-0.2347,-0.241,-0.2482,-0.2506,-0.2512,-0.2451,-0.2401,-0.2294,-0.2209,-0.2126,-0.2068,-0.2101,-0.1926,-0.1966,-0.1835,-0.1834,-0.169,-0.168,-0.1812,-0.1812,-0.1813,-0.1813,-0.1813,0,-0.1924,-0.1995,-0.2182,-0.2207,-0.2319,-0.2396,-0.2438,-0.2478,-0.2435,-0.2374,-0.2327,-0.2223,-0.2152,-0.2066,-0.2025,-0.1869,-0.1886,-0.1767,-0.1763,-0.1693,-0.1685,-0.1937,-0.1953,-0.1809,-0.181,-0.1811,-0.1811,0,-0.1799,-0.1912,-0.2027,-0.2212,-0.2284,-0.2338,-0.2423,-0.2414,-0.2386,-0.2281,-0.2238,-0.2145,-0.2016,-0.1966,-0.1833,-0.1784,-0.1672,-0.1614,-0.156,-0.1546,-0.1651,-0.1669,-0.1425,-0.142,-0.1416,-0.1413,-0.141,0,-0.1737,-0.1784,-0.2004,-0.2076,-0.2167,-0.2272,-0.2318,-0.2362,-0.2322,-0.2223,-0.2153,-0.2012,-0.1845,-0.1653,-0.1556,-0.1427,-0.1538,-0.1272,-0.1266,-0.157,-0.1593,-0.1617,-0.1639,-0.1114,-0.1109,-0.1105,-0.1102,0,-0.1618,-0.1706,-0.1771,-0.1934,-0.2039,-0.2134,-0.2212,-0.2178,-0.2175,-0.2075,-0.1921,-0.177,-0.1569,-0.1341,-0.12,-0.1137,-0.1286,-0.118,-0.1459,-0.1229,-0.1268,-0.1295,-0.1328,-0.1066,-0.107,-0.1072,-0.1074,-0.1076,-0.1524,-0.1533,-0.164,-0.1776,-0.1896,-0.1975,-0.1937,-0.1963,-0.1863,-0.1656,-0.1686,-0.1411,-0.1317,-0.0974,-0.0899,-0.0877,-0.0955,-0.0936,-0.0952,-0.0972,-0.0952,-0.098,-0.0725,-0.0726,-0.0728,-0.0729,-0.073,0,-0.1409,-0.1427,-0.1506,-0.1626,-0.1653,-0.1826,-0.1838,-0.1705,-0.1516,-0.1414,-0.1226,-0.0996,-0.0784,-0.074,-0.0608,-0.0551,-0.0591,-0.0561,-0.0631,-0.0664,-0.0695,-0.0667,-0.0361,-0.036,-0.0359,-0.0358,0,0,-0.1346,-0.1323,-0.1349,-0.1357,-0.1457,-0.1431,-0.1397,-0.1224,-0.11,-0.0858,-0.0736,-0.068,-0.0675,-0.0518,-0.0469,-0.0394,-0.0535,-0.0373,-0.0664,-0.0778,-0.0808,-0.0896,-0.0886,0,0,0,0,0]},{"header":{"parameterUnit":"m.s-1","parameterCategory":2,"la1":30.2991,"la2":30.254,"lo1":-89.0895,"lo2":-89.0444,"dy":0.0017,"dx":0.0017,"nx":28,"ny":28,"refTime":"2025-11-16T03:00:00:Z","depth":"2","parameterNumber":3,"parameterNumberName":"V-component_of_CURRENTS"},"data":[0,0,0,0,0,0,0,0,0,0,0,0,0,0,0,0,0,0,0,0,0,0,0,0,0,0,0,0,0,0,0,0,0,0,0,0,0,0,0,0,0,0,0,0,0,0,0,0,0,0,0,0,0,0,0,0,0,0,-0.0987,-0.0986,0,-0.0806,-0.0803,-0.08,-0.0629,-0.0627,-0.0626,-0.0625,-0.0235,-0.0226,-0.0217,0,0,0,0,0,0,0,0,0,0,0,0,0,-0.1028,-0.1029,-0.0987,-0.0986,-0.0984,-0.0806,-0.0803,-0.08,-0.0629,-0.0627,-0.0625,-0.0624,-0.0238,-0.0227,-0.0216,0,0,0,0,0,0,0,0,0,0,0,0,0,-0.0938,-0.1029,-0.0987,-0.0883,-0.0873,-0.0807,-0.0803,-0.0799,-0.0629,-0.0627,-0.0625,-0.0623,-0.0241,-0.0228,-0.0214,-0.0173,0,0,-0.0173,-0.0167,0,0,0,0,0,0,0,0,-0.0943,-0.0935,-0.09,-0.0891,-0.0879,-0.0745,-0.0675,-0.0582,-0.063,-0.0713,-0.0624,-0.0622,-0.0393,-0.0367,-0.0329,-0.0155,-0.0138,-0.0172,-0.0163,-0.0158,-0.0154,0,0,0,0,0,0,0,-0.095,-0.0941,-0.0907,-0.0899,-0.0886,-0.0792,-0.0778,-0.0656,-0.0557,-0.0706,-0.0695,-0.0688,-0.0384,-0.0342,-0.0318,-0.0132,-0.0172,-0.016,-0.0152,-0.0146,0.026,0.0262,0,0,0,0,0,0,-0.1,-0.0949,-0.0913,-0.0902,-0.0916,-0.0795,-0.0778,-0.0783,-0.0562,-0.0531,-0.069,-0.0681,-0.0367,-0.0334,-0.0303,-0.0085,-0.0158,-0.0145,-0.0137,0.0257,0.026,0.0263,0,0,0,0,0,0,-0.1001,-0.0999,-0.092,-0.0926,-0.0911,-0.0798,-0.0804,-0.0781,-0.072,-0.0555,-0.0516,-0.0653,-0.0364,-0.0322,-0.0129,-0.0075,-0.0139,-0.0127,0.0254,0.0258,0.0262,0.0251,0,0,0,0,0,0,-0.1004,-0.1001,-0.1001,-0.0931,-0.0913,-0.0847,-0.0807,-0.0779,-0.0724,-0.071,-0.051,-0.0473,-0.0359,-0.015,-0.0116,-0.0057,-0.0116,0.0251,0.0256,0.026,0.0248,0.0254,0.0259,0,0,0,0,0,-0.1006,-0.1001,-0.1002,-0.0997,-0.0924,-0.0846,-0.0825,-0.0732,-0.0725,-0.0675,-0.0526,-0.0478,-0.0095,-0.0136,-0.0096,-0.0033,0.0248,0.0254,0.026,0.0246,0.0253,0.0259,0,0,0,0,0,0,-0.1003,-0.0983,-0.0981,-0.0969,-0.0908,-0.0819,-0.0774,-0.074,-0.0594,-0.0572,-0.0427,-0.0376,-0.019,-0.0116,-0.0165,0.0096,0.0077,0.0091,0.0052,0.006,0.0066,0.0028,-0.0105,0,0,0,0,0,-0.1019,-0.102,-0.0973,-0.0962,-0.0939,-0.087,-0.0828,-0.0772,-0.0655,-0.0592,-0.0434,-0.0282,-0.0143,-0.0046,0.01,0.0244,0.0252,0.0305,0.031,0.0315,0.0311,0.0341,0.0348,0.0283,0.0283,0.0282,0,0,-0.1021,-0.101,-0.101,-0.0963,-0.0916,-0.0866,-0.0833,-0.0768,-0.0689,-0.057,-0.037,-0.0247,-0.01,0.0084,0.0169,0.0159,0.0343,0.0322,0.0325,0.0318,0.0348,0.0354,0.0359,0.0287,0.0286,0.0285,0,0,-0.102,-0.1015,-0.1011,-0.0968,-0.0909,-0.0854,-0.0845,-0.0728,-0.0628,-0.0456,-0.0353,-0.0198,0.0041,0.0162,0.024,0.0354,0.0368,0.0396,0.0407,0.0437,0.0441,0.0445,0.0469,0.0475,0.0401,0.0401,0.0401,0,-0.102,-0.1019,-0.0987,-0.0963,-0.0927,-0.0859,-0.0823,-0.0716,-0.053,-0.0422,-0.0381,-0.0055,0.0075,0.0247,0.0304,0.0366,0.0373,0.0366,0.0439,0.0443,0.0447,0.047,0.0477,0.0401,0.0401,0.0401,0.0401,0,-0.102,-0.1005,-0.0992,-0.0952,-0.0896,-0.0851,-0.0737,-0.0607,-0.0495,-0.0374,-0.0147,0.0021,0.0203,0.0267,0.0335,0.044,0.0433,0.0433,0.0405,0.0451,0.0475,0.0482,0.0402,0.0402,0.0402,0.0402,0,0,-0.1043,-0.1005,-0.0997,-0.0964,-0.0891,-0.0829,-0.0697,-0.0531,-0.0412,-0.0219,-0.0077,0.0166,0.0235,0.0323,0.0407,0.045,0.0499,0.0453,0.0454,0.0448,0.0554,0.0407,0.04,0.0497,0.0498,0.0499,0.056,0,-0.1045,-0.1027,-0.0989,-0.0912,-0.0885,-0.0772,-0.0633,-0.0468,-0.031,-0.0129,0.002,0.0192,0.0257,0.033,0.0386,0.0473,0.0516,0.0482,0.0536,0.0538,0.0376,0.0403,0.0419,0.0461,0.0567,0.0568,0.0568,0,-0.1041,-0.1033,-0.1004,-0.0872,-0.0839,-0.0758,-0.0544,-0.0404,-0.0167,-0.0048,0.0094,0.0196,0.0325,0.0333,0.0479,0.0447,0.0504,0.055,0.0553,0.0418,0.0402,0.0436,0.0469,0.058,0.0579,0.0578,0.0577,0,-0.1072,-0.1005,-0.0983,-0.0958,-0.0818,-0.0716,-0.0588,-0.0358,-0.0226,-0.0024,0.0036,0.021,0.0272,0.0361,0.046,0.0473,0.0562,0.0592,0.0517,0.0508,0.0533,0.0522,0.067,0.067,0.067,0.067,0.0669,0,-0.1077,-0.104,-0.0983,-0.0966,-0.0859,-0.0719,-0.0544,-0.0392,-0.0203,-0.0082,0.0061,0.0105,0.0273,0.0341,0.0437,0.0472,0.0546,0.0512,0.0507,0.053,0.0518,0.063,0.0625,0.0672,0.0671,0.0671,0.0671,0,-0.1097,-0.1084,-0.1041,-0.0923,-0.0884,-0.0782,-0.058,-0.0443,-0.0267,-0.0152,-0.0115,0.0033,0.0099,0.0231,0.0366,0.0418,0.0485,0.0482,0.0481,0.0472,0.0429,0.0423,0.0422,0.0417,0.0413,0.0409,0.0406,0,-0.1103,-0.1102,-0.1055,-0.1035,-0.0979,-0.0832,-0.0729,-0.0513,-0.0412,-0.0217,-0.0202,-0.0109,-0.0086,0.0034,0.0163,0.0273,0.0345,0.0339,0.0359,0.0404,0.0401,0.0402,0.0402,0.0426,0.0423,0.0421,0.0419,0,-0.1108,-0.1107,-0.1083,-0.1088,-0.1016,-0.0928,-0.0778,-0.0742,-0.0498,-0.0438,-0.0378,-0.0354,-0.0234,-0.0131,-0.0,0.008,0.0317,0.029,0.0376,0.0433,0.0398,0.0397,0.04,0.0401,0.0403,0.0404,0.0405,0.0406,-0.1101,-0.1109,-0.1112,-0.1092,-0.1046,-0.1004,-0.0929,-0.0831,-0.0744,-0.0603,-0.0578,-0.0488,-0.0328,-0.0182,-0.0054,0.0108,0.0096,0.0201,0.0214,0.0228,0.0164,0.0117,0.0059,0.0059,0.0059,0.0058,0.0058,0,-0.1085,-0.1106,-0.1104,-0.1092,-0.1057,-0.1023,-0.0941,-0.0858,-0.0816,-0.0717,-0.0662,-0.0501,-0.0396,-0.0202,0.0008,0.0083,0.0181,0.0129,0.0279,0.0292,0.0305,0.0253,0.0168,0.0169,0.017,0.0171,0,0,-0.1077,-0.1088,-0.1105,-0.1089,-0.1074,-0.1014,-0.0975,-0.0906,-0.0807,-0.0727,-0.0626,-0.0559,-0.0367,-0.0184,-0.005,0.0081,0.0178,0.0101,-0.0003,0.017,0.0184,0.0316,0.0242,0,0,0,0,0]}],[{"header":{"parameterUnit":"m.s-1","parameterCategory":2,"la1":30.2991,"la2":30.254,"lo1":-89.0895,"lo2":-89.0444,"dy":0.0017,"dx":0.0017,"nx":28,"ny":28,"refTime":"2025-11-16T03:00:00:Z","depth":"4","parameterNumber":2,"parameterNumberName":"U-component_of_CURRENTS"},"data":[0,0,0,0,0,0,0,0,0,0,0,0,0,0,0,0,0,0,0,0,0,0,0,0,0,0,0,0,0,0,0,0,0,0,0,0,0,0,0,0,0,0,0,0,0,0,0,0,0,0,0,0,0,0,0,0,0,0,-0.0863,-0.0863,0,-0.0908,-0.0908,-0.0909,-0.0928,-0.0928,-0.0928,-0.0927,-0.0951,-0.0951,-0.0952,0,0,0,0,0,0,0,0,0,0,0,0,0,-0.0811,-0.0812,-0.0863,-0.0863,-0.0864,-0.0908,-0.0908,-0.0909,-0.0928,-0.0928,-0.0927,-0.0927,-0.095,-0.0951,-0.0952,0,0,0,0,0,0,0,0,0,0,0,0,0,-0.0844,-0.0812,-0.0863,-0.0877,-0.0878,-0.0907,-0.0908,-0.0909,-0.0928,-0.0928,-0.0927,-0.0927,-0.095,-0.0951,-0.0952,-0.0969,0,0,-0.0956,-0.0957,0,0,0,0,0,0,0,0,-0.0842,-0.0846,-0.0874,-0.0876,-0.0878,-0.091,-0.0898,-0.0928,-0.0928,-0.0912,-0.0927,-0.0927,-0.0934,-0.0937,-0.0949,-0.097,-0.0971,-0.0957,-0.0957,-0.0958,-0.0958,0,0,0,0,0,0,0,-0.084,-0.0845,-0.0883,-0.0875,-0.0877,-0.0886,-0.0891,-0.0904,-0.0926,-0.0913,-0.0914,-0.0916,-0.0935,-0.0948,-0.095,-0.0971,-0.0957,-0.0958,-0.0959,-0.0959,-0.1035,-0.1036,0,0,0,0,0,0,-0.083,-0.0842,-0.0881,-0.0884,-0.0856,-0.0888,-0.0893,-0.0902,-0.0926,-0.0929,-0.0916,-0.0916,-0.0946,-0.0948,-0.0951,-0.1008,-0.0958,-0.0959,-0.096,-0.1034,-0.1036,-0.1037,0,0,0,0,0,0,-0.0829,-0.0833,-0.0879,-0.0862,-0.0868,-0.0889,-0.0899,-0.0903,-0.0931,-0.0928,-0.0931,-0.0942,-0.0946,-0.0949,-0.0977,-0.1007,-0.096,-0.0961,-0.1033,-0.1034,-0.1036,-0.1098,0,0,0,0,0,0,-0.0827,-0.0833,-0.0851,-0.0862,-0.0869,-0.0899,-0.0899,-0.0904,-0.0931,-0.0932,-0.0951,-0.0952,-0.0946,-0.0976,-0.0979,-0.1008,-0.0962,-0.1031,-0.1033,-0.1036,-0.1095,-0.1102,-0.1108,0,0,0,0,0,-0.0825,-0.0844,-0.0852,-0.0857,-0.0888,-0.0899,-0.0905,-0.0919,-0.0933,-0.0944,-0.0963,-0.0952,-0.0992,-0.0978,-0.0981,-0.1012,-0.103,-0.1033,-0.1035,-0.1092,-0.1101,-0.1108,0,0,0,0,0,0,-0.0823,-0.0848,-0.0856,-0.088,-0.0891,-0.0902,-0.0922,-0.0933,-0.096,-0.0963,-0.097,-0.0973,-0.1003,-0.1002,-0.0986,-0.104,-0.1009,-0.1012,-0.105,-0.1059,-0.1065,-0.1044,-0.0963,0,0,0,0,0,-0.0832,-0.0855,-0.087,-0.0887,-0.09,-0.0918,-0.0932,-0.0933,-0.095,-0.0963,-0.0985,-0.1002,-0.1016,-0.1033,-0.1037,-0.1077,-0.1047,-0.1097,-0.1104,-0.111,-0.1095,-0.1094,-0.1099,-0.1046,-0.1046,-0.1046,0,0,-0.0826,-0.085,-0.0857,-0.0889,-0.0905,-0.0918,-0.0926,-0.0941,-0.0949,-0.096,-0.1001,-0.1021,-0.1028,-0.1063,-0.1078,-0.107,-0.1109,-0.1114,-0.1119,-0.11,-0.1097,-0.1102,-0.1107,-0.1048,-0.1048,-0.1047,0,0,-0.0821,-0.0858,-0.0874,-0.0893,-0.0917,-0.0927,-0.0936,-0.0962,-0.0976,-0.1004,-0.102,-0.1061,-0.1088,-0.1109,-0.1118,-0.1167,-0.1135,-0.1179,-0.1211,-0.1211,-0.1215,-0.1218,-0.1179,-0.1178,-0.1195,-0.1195,-0.1195,0,-0.0824,-0.0842,-0.0877,-0.0899,-0.0916,-0.0934,-0.0946,-0.096,-0.0991,-0.1007,-0.1015,-0.1084,-0.1102,-0.1148,-0.1174,-0.1182,-0.1163,-0.1182,-0.1219,-0.1221,-0.1223,-0.1183,-0.1181,-0.1198,-0.1198,-0.1198,-0.1197,0,-0.0818,-0.0847,-0.0861,-0.0899,-0.0921,-0.0932,-0.0953,-0.0979,-0.1005,-0.1019,-0.107,-0.111,-0.1151,-0.118,-0.1194,-0.1239,-0.1213,-0.1218,-0.1196,-0.1232,-0.1187,-0.1184,-0.1203,-0.1202,-0.1201,-0.12,0,0,-0.0799,-0.0848,-0.0859,-0.0875,-0.0923,-0.0933,-0.096,-0.0986,-0.1,-0.1048,-0.1074,-0.1145,-0.1182,-0.1195,-0.124,-0.1263,-0.1276,-0.126,-0.1259,-0.1215,-0.1249,-0.1175,-0.1163,-0.1296,-0.1296,-0.1296,-0.1208,0,-0.0791,-0.0821,-0.0856,-0.0882,-0.0896,-0.0937,-0.0959,-0.0984,-0.101,-0.1039,-0.1092,-0.1126,-0.1182,-0.1216,-0.1254,-0.1268,-0.1272,-0.1296,-0.1223,-0.122,-0.1146,-0.1159,-0.1296,-0.1205,-0.1205,-0.1204,-0.1204,0,-0.0777,-0.0802,-0.0826,-0.0871,-0.0885,-0.0904,-0.0948,-0.0972,-0.1011,-0.1035,-0.1093,-0.1115,-0.1182,-0.1205,-0.1246,-0.1263,-0.1255,-0.1258,-0.1254,-0.1156,-0.114,-0.1163,-0.1197,-0.1198,-0.1198,-0.1199,-0.1199,0,-0.0735,-0.0785,-0.0803,-0.0821,-0.0871,-0.0893,-0.0927,-0.097,-0.0996,-0.1035,-0.1042,-0.1113,-0.1134,-0.1165,-0.1192,-0.1218,-0.1193,-0.1219,-0.1133,-0.1126,-0.119,-0.1188,-0.1207,-0.1207,-0.1208,-0.1208,-0.1208,0,-0.0713,-0.073,-0.0783,-0.0794,-0.0814,-0.0868,-0.0897,-0.0935,-0.0984,-0.0993,-0.1048,-0.1046,-0.1126,-0.1124,-0.1158,-0.1129,-0.1163,-0.1118,-0.1101,-0.1218,-0.122,-0.1187,-0.1186,-0.1205,-0.1205,-0.1206,-0.1207,0,-0.0663,-0.0701,-0.072,-0.0775,-0.0794,-0.0812,-0.0885,-0.0897,-0.095,-0.0958,-0.0967,-0.0995,-0.0988,-0.1033,-0.1048,-0.1057,-0.1051,-0.1022,-0.1107,-0.1098,-0.0987,-0.099,-0.0912,-0.0909,-0.0906,-0.0904,-0.0902,0,-0.0643,-0.0645,-0.0699,-0.0707,-0.0735,-0.0775,-0.0796,-0.0876,-0.0888,-0.091,-0.0895,-0.0884,-0.0894,-0.0849,-0.0915,-0.0931,-0.0941,-0.0916,-0.0992,-0.0967,-0.0958,-0.0966,-0.0972,-0.0898,-0.0897,-0.0896,-0.0895,0,-0.0602,-0.0622,-0.0637,-0.0652,-0.0676,-0.0694,-0.073,-0.0734,-0.0799,-0.0847,-0.0801,-0.0789,-0.0755,-0.0783,-0.0785,-0.0812,-0.0935,-0.0888,-0.0895,-0.0966,-0.0948,-0.0944,-0.0954,-0.0886,-0.0887,-0.0888,-0.0889,0,-0.0575,-0.0566,-0.0587,-0.0589,-0.0609,-0.0594,-0.0629,-0.0636,-0.0669,-0.0713,-0.0683,-0.0688,-0.0719,-0.0714,-0.0726,-0.0739,-0.0754,-0.0763,-0.0777,-0.0788,-0.0798,-0.0761,-0.061,0,0,0,0,0,-0.0545,-0.0525,-0.0524,-0.0515,-0.0523,-0.0534,-0.0571,-0.0608,-0.0662,-0.0615,-0.066,-0.0631,-0.0627,-0.0637,-0.063,-0.0679,-0.0758,-0.0669,-0.0775,-0.0832,-0.0844,-0.0873,0,0,0,0,0,0,-0.0524,-0.0522,-0.0505,-0.045,-0.0425,-0.0429,-0.0446,-0.0482,-0.0475,-0.0534,-0.0538,-0.0594,-0.0605,-0.0617,-0.0612,-0.0621,-0.0678,-0.07,-0.0698,-0.0826,-0.0836,-0.0845,-0.0879,0,0,0,0,0]},{"header":{"parameterUnit":"m.s-1","parameterCategory":2,"la1":30.2991,"la2":30.254,"lo1":-89.0895,"lo2":-89.0444,"dy":0.0017,"dx":0.0017,"nx":28,"ny":28,"refTime":"2025-11-16T03:00:00:Z","depth":"4","parameterNumber":3,"parameterNumberName":"V-component_of_CURRENTS"},"data":[0,0,0,0,0,0,0,0,0,0,0,0,0,0,0,0,0,0,0,0,0,0,0,0,0,0,0,0,0,0,0,0,0,0,0,0,0,0,0,0,0,0,0,0,0,0,0,0,0,0,0,0,0,0,0,0,0,0,-0.069,-0.0691,0,-0.0711,-0.0712,-0.0712,-0.072,-0.0721,-0.0721,-0.0721,-0.0712,-0.0712,-0.0712,0,0,0,0,0,0,0,0,0,0,0,0,0,-0.0638,-0.0639,-0.069,-0.0691,-0.0691,-0.0711,-0.0712,-0.0712,-0.072,-0.0721,-0.0721,-0.0721,-0.0713,-0.0712,-0.0712,0,0,0,0,0,0,0,0,0,0,0,0,0,-0.066,-0.064,-0.069,-0.0698,-0.0699,-0.0711,-0.0712,-0.0712,-0.072,-0.0721,-0.0721,-0.0721,-0.0713,-0.0712,-0.0712,-0.071,0,0,-0.0711,-0.0711,0,0,0,0,0,0,0,0,-0.0659,-0.0662,-0.0697,-0.0698,-0.0699,-0.0714,-0.069,-0.071,-0.072,-0.0712,-0.0721,-0.0721,-0.0711,-0.071,-0.0714,-0.0709,-0.0709,-0.0711,-0.0711,-0.0711,-0.0711,0,0,0,0,0,0,0,-0.0657,-0.0661,-0.0698,-0.0697,-0.0698,-0.0694,-0.0697,-0.0694,-0.071,-0.0713,-0.0713,-0.0717,-0.0711,-0.0714,-0.0714,-0.0709,-0.0711,-0.0711,-0.071,-0.071,-0.0746,-0.0748,0,0,0,0,0,0,-0.0657,-0.066,-0.0697,-0.0699,-0.0679,-0.0695,-0.0699,-0.0709,-0.0711,-0.0711,-0.0717,-0.0717,-0.0715,-0.0714,-0.0713,-0.0735,-0.0711,-0.071,-0.071,-0.0745,-0.0747,-0.0748,0,0,0,0,0,0,-0.0656,-0.066,-0.0697,-0.0679,-0.0684,-0.0696,-0.0707,-0.0709,-0.072,-0.0714,-0.0714,-0.0726,-0.0715,-0.0714,-0.0729,-0.0734,-0.071,-0.071,-0.0744,-0.0746,-0.0747,-0.0763,0,0,0,0,0,0,-0.0654,-0.066,-0.0676,-0.068,-0.0685,-0.0715,-0.0707,-0.0709,-0.0721,-0.0722,-0.0722,-0.0721,-0.0715,-0.073,-0.0729,-0.0733,-0.071,-0.0742,-0.0745,-0.0747,-0.0761,-0.0765,-0.0768,0,0,0,0,0,-0.0653,-0.0673,-0.0677,-0.0682,-0.0704,-0.0715,-0.0718,-0.0726,-0.0722,-0.0734,-0.0738,-0.0721,-0.0743,-0.073,-0.0729,-0.0733,-0.0741,-0.0744,-0.0747,-0.0759,-0.0764,-0.0768,0,0,0,0,0,0,-0.0663,-0.0676,-0.068,-0.0705,-0.0715,-0.0717,-0.0733,-0.073,-0.0742,-0.0747,-0.0735,-0.0735,-0.0751,-0.0746,-0.0732,-0.0754,-0.074,-0.0742,-0.075,-0.0754,-0.0758,-0.0739,-0.0709,0,0,0,0,0,-0.0672,-0.0688,-0.0698,-0.0718,-0.0726,-0.0729,-0.0737,-0.0742,-0.0748,-0.0754,-0.0756,-0.0759,-0.076,-0.076,-0.0767,-0.0774,-0.0763,-0.0779,-0.0782,-0.0785,-0.0772,-0.077,-0.0772,-0.0757,-0.0757,-0.0756,0,0,-0.0681,-0.069,-0.07,-0.0721,-0.073,-0.0738,-0.0735,-0.0753,-0.0757,-0.075,-0.0768,-0.0775,-0.0768,-0.0782,-0.0787,-0.0776,-0.0788,-0.0789,-0.0791,-0.0775,-0.0773,-0.0774,-0.0775,-0.0758,-0.0758,-0.0758,0,0,-0.0693,-0.0717,-0.0729,-0.0735,-0.0752,-0.0758,-0.0763,-0.0777,-0.0785,-0.0801,-0.0798,-0.0807,-0.0815,-0.0809,-0.0803,-0.083,-0.0812,-0.084,-0.0835,-0.0834,-0.0835,-0.0835,-0.0833,-0.0833,-0.0837,-0.0837,-0.0837,0,-0.0703,-0.0718,-0.0735,-0.074,-0.0747,-0.0764,-0.0772,-0.0781,-0.0799,-0.0804,-0.0812,-0.0823,-0.0821,-0.0813,-0.0826,-0.0834,-0.0834,-0.0815,-0.0837,-0.0837,-0.0837,-0.0835,-0.0834,-0.0838,-0.0838,-0.0838,-0.0837,0,-0.0712,-0.0726,-0.0735,-0.0747,-0.0761,-0.0774,-0.0786,-0.0807,-0.0821,-0.0823,-0.0838,-0.0842,-0.0843,-0.0849,-0.0841,-0.0842,-0.0843,-0.0844,-0.0819,-0.0838,-0.0836,-0.0835,-0.0839,-0.0839,-0.0839,-0.0838,0,0,-0.0721,-0.0738,-0.0741,-0.0747,-0.0765,-0.0779,-0.0793,-0.0809,-0.0816,-0.0836,-0.084,-0.0842,-0.085,-0.0844,-0.0843,-0.0836,-0.0842,-0.084,-0.0839,-0.0826,-0.0843,-0.0745,-0.0735,-0.085,-0.085,-0.085,-0.0845,0,-0.0721,-0.0734,-0.0743,-0.0759,-0.0767,-0.0785,-0.0793,-0.081,-0.0828,-0.0843,-0.084,-0.0851,-0.0845,-0.0853,-0.0845,-0.0852,-0.0839,-0.0843,-0.0835,-0.0835,-0.0735,-0.073,-0.0849,-0.0844,-0.0844,-0.0844,-0.0844,0,-0.0717,-0.0729,-0.0744,-0.0761,-0.0769,-0.0783,-0.0811,-0.082,-0.0835,-0.0849,-0.0854,-0.0858,-0.0856,-0.0852,-0.0846,-0.0853,-0.0843,-0.0837,-0.0838,-0.0732,-0.0733,-0.0819,-0.0842,-0.0842,-0.0842,-0.0842,-0.0842,0,-0.0707,-0.0727,-0.0745,-0.0748,-0.0772,-0.0788,-0.0807,-0.0825,-0.084,-0.0858,-0.0869,-0.0868,-0.0879,-0.0865,-0.0846,-0.0858,-0.083,-0.085,-0.0744,-0.0739,-0.0823,-0.0822,-0.0826,-0.0826,-0.0826,-0.0826,-0.0826,0,-0.0689,-0.0705,-0.0746,-0.0752,-0.0777,-0.0793,-0.0821,-0.0835,-0.0858,-0.0868,-0.0874,-0.0876,-0.0884,-0.0866,-0.0848,-0.078,-0.0832,-0.0727,-0.0721,-0.0833,-0.0834,-0.0822,-0.0822,-0.0826,-0.0826,-0.0826,-0.0826,0,-0.0665,-0.069,-0.0712,-0.0752,-0.0771,-0.0789,-0.0837,-0.0849,-0.0872,-0.0886,-0.0892,-0.0901,-0.0869,-0.0842,-0.0823,-0.0775,-0.0727,-0.0685,-0.0796,-0.0799,-0.0643,-0.0644,-0.0584,-0.0581,-0.0578,-0.0575,-0.0573,0,-0.065,-0.0661,-0.0717,-0.0736,-0.0759,-0.0797,-0.0817,-0.0855,-0.0868,-0.0888,-0.0885,-0.0867,-0.0853,-0.0755,-0.073,-0.0658,-0.0636,-0.0613,-0.0627,-0.0613,-0.0614,-0.062,-0.0625,-0.0568,-0.0567,-0.0566,-0.0565,0,-0.0624,-0.0654,-0.0677,-0.0717,-0.075,-0.0784,-0.0818,-0.0828,-0.0857,-0.0883,-0.0861,-0.0813,-0.0761,-0.0715,-0.0638,-0.0593,-0.0634,-0.0581,-0.0588,-0.06,-0.0592,-0.0598,-0.0606,-0.0554,-0.0556,-0.0557,-0.0557,0,-0.0612,-0.0624,-0.0662,-0.0691,-0.0734,-0.0755,-0.0779,-0.0792,-0.0811,-0.083,-0.0824,-0.0782,-0.0788,-0.0678,-0.0617,-0.0543,-0.0535,-0.0521,-0.0531,-0.0542,-0.0516,-0.0499,-0.0411,0,0,0,0,0,-0.059,-0.0605,-0.0632,-0.0667,-0.0707,-0.0733,-0.077,-0.079,-0.082,-0.079,-0.0807,-0.075,-0.0649,-0.0631,-0.0537,-0.0554,-0.0519,-0.0439,-0.0507,-0.0493,-0.0506,-0.047,0,0,0,0,0,0,-0.058,-0.0605,-0.0619,-0.0641,-0.0663,-0.0703,-0.0727,-0.0745,-0.0734,-0.0758,-0.0714,-0.0708,-0.0623,-0.0702,-0.0533,-0.0514,-0.0536,-0.041,-0.0407,-0.0486,-0.0498,-0.0508,-0.0475,0,0,0,0,0]}]]